[[{"header":{"parameterUnit":"m.s-1","parameterCategory":2,"la1":30.2991,"la2":30.254,"lo1":-89.0895,"lo2":-89.0444,"dy":0.0017,"dx":0.0017,"nx":28,"ny":28,"refTime":"2024-08-03T09:00:00:Z","depth":"0","parameterNumber":2,"parameterNumberName":"U-component_of_CURRENTS"},"data":[0,0,0,0,0,0,0,0,0,0,0,0,0,0,0,0,0,0,0,0,0,0,0,0,0,0,0,0,0,0,0,0,0,0,0,0,0,0,0,0,0,0,0,0,0,0,0,0,0,0,0,0,0,0,0,0,0,0,0.2365,0.2366,0,0.2423,0.2423,0.2423,0.2397,0.2396,0.2395,0.2394,0.2365,0.2365,0.2366,0,0,0,0,0,0,0,0,0,0,0,0,0,0.225,0.2252,0.2365,0.2366,0.2367,0.2422,0.2423,0.2424,0.2397,0.2396,0.2394,0.2393,0.2365,0.2365,0.2366,0,0,0,0,0,0,0,0,0,0,0,0,0,0.23,0.2252,0.2365,0.2362,0.2363,0.2422,0.2423,0.2424,0.2398,0.2396,0.2394,0.2392,0.2365,0.2365,0.2366,0.2405,0,0,0.2368,0.2368,0,0,0,0,0,0,0,0,0.2297,0.2304,0.2362,0.2363,0.2363,0.2403,0.2372,0.2414,0.2398,0.2382,0.2394,0.2392,0.2373,0.2373,0.2385,0.2404,0.2403,0.2368,0.2368,0.2368,0.2368,0,0,0,0,0,0,0,0.2294,0.2302,0.2385,0.2363,0.2364,0.2365,0.2369,0.238,0.2383,0.2383,0.2382,0.2393,0.2372,0.2385,0.2384,0.2402,0.2368,0.2368,0.2368,0.2369,0.2507,0.251,0,0,0,0,0,0,0.2294,0.2299,0.2383,0.2387,0.2328,0.2368,0.2374,0.239,0.2385,0.2384,0.2395,0.2392,0.2385,0.2383,0.2383,0.2449,0.2368,0.2369,0.2369,0.2504,0.2508,0.2512,0,0,0,0,0,0,0.2291,0.2301,0.2381,0.2346,0.2356,0.2372,0.2391,0.2392,0.2407,0.2395,0.2391,0.2409,0.2383,0.2382,0.2418,0.2446,0.2369,0.2369,0.25,0.2505,0.251,0.2567,0,0,0,0,0,0,0.2288,0.23,0.2312,0.2346,0.2358,0.2431,0.2393,0.2395,0.2418,0.2415,0.2406,0.2401,0.2382,0.2418,0.2418,0.2445,0.237,0.2496,0.2502,0.2508,0.2561,0.2574,0.2584,0,0,0,0,0,0.2284,0.2312,0.2313,0.2323,0.2375,0.2433,0.244,0.2443,0.2421,0.2445,0.2445,0.2402,0.2458,0.2421,0.2421,0.2448,0.2493,0.25,0.2508,0.2556,0.2571,0.2584,0,0,0,0,0,0,0.2262,0.2313,0.2314,0.2354,0.2396,0.243,0.2453,0.2454,0.2475,0.2466,0.2442,0.244,0.2484,0.2474,0.2434,0.2515,0.247,0.2478,0.2507,0.2521,0.2532,0.258,0.237,0,0,0,0,0,0.2267,0.2305,0.2349,0.2383,0.2406,0.2431,0.2453,0.246,0.2484,0.249,0.2486,0.2494,0.252,0.2524,0.2544,0.2584,0.2691,0.2608,0.262,0.2629,0.2674,0.2941,0.2982,0.2536,0.2536,0.2536,0,0,0.2267,0.2302,0.232,0.2383,0.2411,0.246,0.244,0.2485,0.2518,0.2485,0.2524,0.2535,0.2545,0.2593,0.2611,0.2581,0.2799,0.2639,0.2646,0.2687,0.2954,0.2998,0.3037,0.2541,0.2541,0.254,0,0,0.2303,0.232,0.2371,0.2412,0.2469,0.2486,0.2504,0.2547,0.2558,0.2607,0.2597,0.2653,0.2658,0.2699,0.2711,0.2812,0.286,0.2789,0.2873,0.3131,0.3171,0.3208,0.3344,0.3392,0.2786,0.2786,0.2786,0,0.23,0.2368,0.2394,0.2456,0.2488,0.2501,0.2557,0.2582,0.2629,0.2662,0.2627,0.2732,0.2727,0.2827,0.2852,0.2839,0.2961,0.2804,0.315,0.3189,0.3226,0.3357,0.341,0.279,0.279,0.2789,0.2789,0,0.2386,0.2431,0.2466,0.2542,0.2578,0.2633,0.2668,0.2703,0.2707,0.2743,0.2841,0.2869,0.2945,0.2937,0.2915,0.3142,0.3133,0.3141,0.3115,0.3275,0.3401,0.3455,0.2795,0.2794,0.2793,0.2792,0,0,0.2421,0.2506,0.252,0.2565,0.2627,0.2675,0.2724,0.2801,0.2862,0.2907,0.3027,0.3072,0.3109,0.3135,0.3132,0.3321,0.3642,0.3337,0.3349,0.3472,0.4163,0.4138,0.4193,0.3733,0.3744,0.3753,0.4125,0,0.2486,0.2597,0.2614,0.271,0.2778,0.2788,0.2839,0.2904,0.295,0.3069,0.3139,0.3245,0.3175,0.323,0.3417,0.3596,0.3799,0.3537,0.3992,0.4004,0.3967,0.4263,0.4163,0.449,0.4179,0.4188,0.4194,0,0.259,0.2649,0.2742,0.2816,0.2842,0.2884,0.2979,0.3025,0.3164,0.3211,0.3337,0.3405,0.363,0.3584,0.4008,0.385,0.4035,0.4167,0.4186,0.4197,0.4087,0.4295,0.4601,0.4452,0.4278,0.4271,0.4265,0,0.2664,0.2747,0.2815,0.2846,0.2924,0.2956,0.2986,0.3082,0.3173,0.3334,0.3464,0.367,0.3852,0.4119,0.4324,0.4236,0.4819,0.4733,0.4876,0.4869,0.4895,0.4874,0.5125,0.5136,0.5135,0.5134,0.5133,0,0.2768,0.2834,0.285,0.2912,0.3007,0.301,0.3128,0.3179,0.3323,0.3471,0.3562,0.3751,0.4032,0.4334,0.448,0.485,0.4964,0.4989,0.5035,0.4898,0.4875,0.4828,0.4682,0.5148,0.5145,0.5142,0.514,0,0.2906,0.289,0.3004,0.3055,0.3065,0.3146,0.324,0.3321,0.3424,0.3642,0.3724,0.3977,0.4321,0.4555,0.5009,0.5091,0.5276,0.5489,0.5234,0.5246,0.5189,0.5047,0.5216,0.5048,0.5745,0.5747,0.575,0,0.3011,0.307,0.3142,0.3171,0.32,0.3279,0.3321,0.3392,0.3486,0.3752,0.3887,0.426,0.4463,0.5046,0.5301,0.5619,0.5408,0.5713,0.5548,0.5274,0.5153,0.4877,0.4698,0.5572,0.5573,0.5573,0.5574,0,0.3197,0.3196,0.3244,0.3316,0.335,0.3422,0.3483,0.3583,0.366,0.3836,0.4062,0.4239,0.4764,0.5051,0.5463,0.5633,0.5423,0.5734,0.5601,0.5204,0.4786,0.4611,0.5122,0.5578,0.5578,0.5578,0.5577,0.5577,0.3292,0.3348,0.3334,0.3406,0.3442,0.3461,0.347,0.3546,0.3659,0.3802,0.4073,0.4272,0.4791,0.5341,0.5465,0.5654,0.5492,0.5591,0.549,0.5271,0.4983,0.5441,0.5842,0.5843,0.5844,0.5845,0.5846,0,0.332,0.3313,0.3398,0.3381,0.3389,0.3424,0.3473,0.3426,0.3458,0.3708,0.3871,0.4371,0.4728,0.5106,0.5529,0.5446,0.5188,0.5311,0.491,0.4779,0.5394,0.5255,0.5366,0.5366,0.5366,0.5366,0.5366,0.5366,0.3279,0.3278,0.3297,0.3248,0.3259,0.3163,0.315,0.3135,0.3243,0.3413,0.3649,0.3928,0.452,0.5129,0.5279,0.5192,0.475,0.4618,0.4474,0.4901,0.4916,0.493,0.4772,0.478,0.4779,0.3732,0.3724,0.3718]},{"header":{"parameterUnit":"m.s-1","parameterCategory":2,"la1":30.2991,"la2":30.254,"lo1":-89.0895,"lo2":-89.0444,"dy":0.0017,"dx":0.0017,"nx":28,"ny":28,"refTime":"2024-08-03T09:00:00:Z","depth":"0","parameterNumber":3,"parameterNumberName":"V-component_of_CURRENTS"},"data":[0,0,0,0,0,0,0,0,0,0,0,0,0,0,0,0,0,0,0,0,0,0,0,0,0,0,0,0,0,0,0,0,0,0,0,0,0,0,0,0,0,0,0,0,0,0,0,0,0,0,0,0,0,0,0,0,0,0,-0.0428,-0.0428,0,-0.0479,-0.048,-0.0481,-0.0517,-0.0517,-0.0517,-0.0517,-0.0617,-0.0619,-0.0622,0,0,0,0,0,0,0,0,0,0,0,0,0,-0.0434,-0.0434,-0.0428,-0.0428,-0.0429,-0.0479,-0.048,-0.0481,-0.0517,-0.0517,-0.0517,-0.0517,-0.0616,-0.0619,-0.0622,0,0,0,0,0,0,0,0,0,0,0,0,0,-0.0455,-0.0434,-0.0427,-0.0451,-0.0454,-0.0479,-0.048,-0.0481,-0.0517,-0.0517,-0.0517,-0.0517,-0.0615,-0.0619,-0.0623,-0.0643,0,0,-0.0634,-0.0636,0,0,0,0,0,0,0,0,-0.0454,-0.0455,-0.0447,-0.0449,-0.0452,-0.049,-0.0519,-0.0537,-0.0517,-0.0495,-0.0517,-0.0517,-0.0577,-0.0584,-0.0596,-0.0648,-0.0652,-0.0635,-0.0637,-0.0639,-0.064,0,0,0,0,0,0,0,-0.0452,-0.0453,-0.045,-0.0448,-0.0451,-0.0484,-0.0487,-0.0523,-0.0537,-0.0497,-0.0499,-0.0502,-0.058,-0.0592,-0.0599,-0.0654,-0.0635,-0.0638,-0.064,-0.0642,-0.071,-0.071,0,0,0,0,0,0,-0.0437,-0.0451,-0.0448,-0.0451,-0.0451,-0.0484,-0.0487,-0.0479,-0.0536,-0.0544,-0.0501,-0.0503,-0.0585,-0.0594,-0.0602,-0.0599,-0.0639,-0.0642,-0.0644,-0.0711,-0.071,-0.0709,0,0,0,0,0,0,-0.0437,-0.0436,-0.0446,-0.0452,-0.0455,-0.0483,-0.0475,-0.048,-0.0492,-0.0538,-0.0548,-0.0507,-0.0586,-0.0597,-0.0631,-0.0605,-0.0644,-0.0647,-0.0711,-0.071,-0.071,-0.0613,0,0,0,0,0,0,-0.0437,-0.0436,-0.0429,-0.045,-0.0454,-0.0453,-0.0474,-0.0481,-0.0492,-0.0495,-0.0546,-0.0555,-0.0587,-0.0625,-0.0635,-0.0611,-0.065,-0.0712,-0.0711,-0.071,-0.0617,-0.0609,-0.0603,0,0,0,0,0,-0.0437,-0.0419,-0.0429,-0.0429,-0.0443,-0.0453,-0.0458,-0.048,-0.0492,-0.0493,-0.0529,-0.0554,-0.0625,-0.0628,-0.0639,-0.0616,-0.0712,-0.0711,-0.071,-0.062,-0.0611,-0.0603,0,0,0,0,0,0,-0.0413,-0.0422,-0.0432,-0.0417,-0.0432,-0.0458,-0.0459,-0.0477,-0.0506,-0.0509,-0.0556,-0.0568,-0.0588,-0.062,-0.0621,-0.0634,-0.067,-0.0671,-0.0597,-0.0589,-0.0582,-0.0487,-0.0654,0,0,0,0,0,-0.0406,-0.0399,-0.0414,-0.0404,-0.0407,-0.0434,-0.0443,-0.0456,-0.0482,-0.0495,-0.0532,-0.0567,-0.0593,-0.0605,-0.0641,-0.065,-0.0577,-0.0642,-0.0634,-0.0628,-0.056,-0.0369,-0.0334,-0.0706,-0.0706,-0.0706,0,0,-0.0395,-0.0398,-0.0396,-0.04,-0.0413,-0.0418,-0.044,-0.0443,-0.0449,-0.0502,-0.0523,-0.0552,-0.0594,-0.0602,-0.0612,-0.0623,-0.0507,-0.0626,-0.062,-0.0554,-0.0363,-0.0326,-0.0292,-0.0705,-0.0705,-0.0705,0,0,-0.0369,-0.0371,-0.0358,-0.037,-0.0382,-0.04,-0.0399,-0.0423,-0.0432,-0.0459,-0.0487,-0.0471,-0.0556,-0.0532,-0.0544,-0.0513,-0.048,-0.056,-0.0435,-0.0253,-0.0217,-0.0186,-0.0127,-0.009,-0.0547,-0.0546,-0.0546,0,-0.0353,-0.0337,-0.0357,-0.0352,-0.0354,-0.0389,-0.0378,-0.0398,-0.0432,-0.0398,-0.0458,-0.0442,-0.0499,-0.0423,-0.0428,-0.0486,-0.0415,-0.0466,-0.0232,-0.0199,-0.0167,-0.0114,-0.0074,-0.0542,-0.0542,-0.0543,-0.0543,0,-0.0323,-0.0314,-0.0305,-0.0313,-0.0323,-0.0314,-0.0342,-0.0338,-0.0361,-0.0351,-0.029,-0.0325,-0.0278,-0.0324,-0.0382,-0.0201,-0.024,-0.0247,-0.0235,-0.0122,-0.0078,-0.0038,-0.0535,-0.0537,-0.0538,-0.0539,0,0,-0.0254,-0.0278,-0.0271,-0.025,-0.0293,-0.0275,-0.0286,-0.0249,-0.0165,-0.0205,-0.0063,-0.0123,-0.0072,-0.0076,-0.0107,0.0023,0.0233,-0.0016,-0.0009,0.0076,0.0578,0.0432,0.046,0.029,0.0299,0.0307,0.0492,0,-0.0211,-0.0175,-0.0219,-0.0181,-0.0149,-0.0189,-0.017,-0.0143,-0.0111,0.0012,0.0042,0.0138,-0.0,0.007,0.0177,0.0254,0.0357,0.0179,0.043,0.0436,0.0326,0.051,0.0454,0.0609,0.0531,0.0538,0.0542,0,-0.0142,-0.0124,-0.0073,-0.0047,-0.0035,-0.0022,0.0082,0.0085,0.0214,0.0259,0.0382,0.0421,0.0583,0.0466,0.0693,0.0594,0.06,0.063,0.0639,0.0524,0.037,0.0498,0.0685,0.0345,0.0604,0.0599,0.0594,0,-0.0002,-0.0006,0.0055,0.0056,0.0066,0.011,0.0113,0.0203,0.0305,0.0474,0.0631,0.0768,0.0923,0.0997,0.0969,0.0896,0.1215,0.1125,0.0983,0.0966,0.0983,0.0954,0.0921,0.132,0.132,0.1319,0.1319,0,0.0111,0.017,0.0142,0.0195,0.0317,0.0247,0.0415,0.0451,0.0603,0.0802,0.0809,0.1045,0.109,0.1226,0.1146,0.1189,0.1359,0.1078,0.1064,0.0992,0.0964,0.0714,0.0506,0.1326,0.1324,0.1323,0.1322,0,0.0318,0.0269,0.037,0.0387,0.0407,0.051,0.0602,0.0733,0.0827,0.1111,0.1197,0.1381,0.1548,0.1497,0.1637,0.1448,0.1282,0.1405,0.1233,0.1196,0.0712,0.051,0.056,0.0395,0.1347,0.1345,0.1344,0,0.0451,0.0516,0.0567,0.0626,0.0652,0.0755,0.0836,0.0882,0.1033,0.1321,0.151,0.1735,0.1915,0.1976,0.1736,0.1594,0.1292,0.1352,0.1201,0.0742,0.0512,0.0389,0.0236,0.1226,0.1224,0.1222,0.1221,0,0.071,0.0714,0.0771,0.0883,0.097,0.1085,0.1199,0.1365,0.1447,0.1687,0.2007,0.2177,0.219,0.2087,0.1787,0.1615,0.1062,0.1304,0.0974,0.0554,0.0298,0.0109,0.0928,0.1205,0.1207,0.1208,0.1209,0.1209,0.0902,0.0981,0.1002,0.1117,0.1225,0.1374,0.1494,0.1642,0.1896,0.221,0.2344,0.2617,0.2357,0.2002,0.163,0.0906,0.0958,0.0679,0.0512,0.0461,0.0195,0.0887,0.104,0.104,0.1041,0.1041,0.1042,0,0.1058,0.1079,0.1211,0.1306,0.1445,0.1465,0.1694,0.1819,0.2103,0.2432,0.2683,0.282,0.2289,0.1754,0.0844,0.024,0.0017,-0.0094,-0.0261,-0.0348,0.0429,0.0304,0.0131,0.0131,0.0131,0.0132,0.0132,0.0133,0.1116,0.1194,0.1222,0.1432,0.1534,0.1712,0.1844,0.2083,0.2342,0.2771,0.305,0.3264,0.2972,0.1155,-0.0205,-0.0542,-0.098,-0.1051,-0.1265,-0.079,-0.0731,-0.0675,-0.084,-0.1249,-0.1251,-0.1971,-0.1979,-0.1985]}],[{"header":{"parameterUnit":"m.s-1","parameterCategory":2,"la1":30.2991,"la2":30.254,"lo1":-89.0895,"lo2":-89.0444,"dy":0.0017,"dx":0.0017,"nx":28,"ny":28,"refTime":"2024-08-03T09:00:00:Z","depth":"2","parameterNumber":2,"parameterNumberName":"U-component_of_CURRENTS"},"data":[0,0,0,0,0,0,0,0,0,0,0,0,0,0,0,0,0,0,0,0,0,0,0,0,0,0,0,0,0,0,0,0,0,0,0,0,0,0,0,0,0,0,0,0,0,0,0,0,0,0,0,0,0,0,0,0,0,0,0.2341,0.2342,0,0.2407,0.2408,0.2408,0.243,0.2429,0.2429,0.2429,0.2457,0.2458,0.2459,0,0,0,0,0,0,0,0,0,0,0,0,0,0.2234,0.2236,0.2341,0.2342,0.2343,0.2407,0.2408,0.2409,0.243,0.2429,0.2429,0.2429,0.2456,0.2458,0.2459,0,0,0,0,0,0,0,0,0,0,0,0,0,0.2288,0.2237,0.2341,0.2361,0.2364,0.2407,0.2408,0.2409,0.243,0.2429,0.2429,0.2429,0.2456,0.2458,0.2459,0.2477,0,0,0.2464,0.2464,0,0,0,0,0,0,0,0,0.2285,0.2292,0.2358,0.236,0.2363,0.241,0.238,0.243,0.243,0.2405,0.2429,0.2428,0.2438,0.2441,0.2455,0.2478,0.2479,0.2464,0.2465,0.2465,0.2466,0,0,0,0,0,0,0,0.2282,0.229,0.2367,0.2358,0.2362,0.2367,0.2374,0.239,0.2422,0.2407,0.2409,0.2416,0.2439,0.2453,0.2455,0.248,0.2464,0.2465,0.2466,0.2467,0.2536,0.2537,0,0,0,0,0,0,0.2275,0.2286,0.2365,0.2369,0.2322,0.2369,0.2377,0.2395,0.2423,0.2427,0.2416,0.2417,0.2451,0.2454,0.2456,0.2531,0.2465,0.2467,0.2468,0.2535,0.2536,0.2537,0,0,0,0,0,0,0.2272,0.2281,0.2362,0.2328,0.2339,0.2372,0.2391,0.2397,0.2415,0.2431,0.2434,0.243,0.2451,0.2454,0.2477,0.253,0.2467,0.2469,0.2534,0.2535,0.2537,0.2647,0,0,0,0,0,0,0.2269,0.228,0.229,0.2328,0.2341,0.24,0.2392,0.2398,0.242,0.2421,0.2443,0.2445,0.245,0.2475,0.2479,0.2531,0.247,0.2533,0.2534,0.2536,0.2642,0.2652,0.2661,0,0,0,0,0,0.2265,0.2284,0.2291,0.23,0.2354,0.2401,0.2408,0.2429,0.2421,0.2441,0.2448,0.2444,0.2489,0.2477,0.2481,0.2535,0.2532,0.2534,0.2536,0.2638,0.265,0.266,0,0,0,0,0,0,0.2241,0.229,0.2297,0.2329,0.2366,0.2405,0.2427,0.2432,0.2455,0.2456,0.2457,0.2461,0.2503,0.2492,0.2478,0.2555,0.251,0.2513,0.2586,0.2597,0.2606,0.2594,0.2471,0,0,0,0,0,0.2241,0.227,0.2313,0.234,0.2363,0.2393,0.2412,0.2429,0.2453,0.2464,0.2476,0.2488,0.2515,0.2532,0.2546,0.2588,0.2601,0.2622,0.2631,0.2639,0.2629,0.2701,0.2717,0.2544,0.2544,0.2544,0,0,0.2235,0.2268,0.2282,0.2337,0.2369,0.2418,0.2405,0.2447,0.2483,0.2462,0.2511,0.252,0.2529,0.2583,0.2601,0.2583,0.27,0.2642,0.2649,0.2634,0.2705,0.2722,0.2737,0.2545,0.2545,0.2545,0,0,0.2254,0.2277,0.2315,0.2353,0.2408,0.2435,0.2447,0.2493,0.2512,0.2555,0.2555,0.2584,0.2619,0.2646,0.2661,0.2721,0.2742,0.2734,0.2783,0.2855,0.2871,0.2884,0.2952,0.297,0.2745,0.2745,0.2745,0,0.2244,0.2303,0.2331,0.2385,0.2421,0.2445,0.2497,0.2528,0.2571,0.259,0.258,0.2645,0.2651,0.2725,0.2747,0.2747,0.2789,0.275,0.2871,0.2884,0.2896,0.2962,0.2981,0.2751,0.275,0.2749,0.2749,0,0.23,0.2348,0.2378,0.2456,0.2496,0.2546,0.2595,0.263,0.2648,0.2671,0.2733,0.2749,0.2788,0.2805,0.2797,0.2892,0.2897,0.2876,0.2852,0.2921,0.2985,0.3003,0.2759,0.2757,0.2755,0.2754,0,0,0.228,0.2394,0.2405,0.2453,0.2539,0.2578,0.2646,0.2711,0.2758,0.2791,0.2855,0.2895,0.2899,0.2912,0.2923,0.2976,0.3106,0.2968,0.297,0.3049,0.3283,0.3215,0.3228,0.3126,0.3129,0.3132,0.3305,0,0.2318,0.2421,0.247,0.2565,0.2625,0.2672,0.2735,0.279,0.2836,0.2902,0.2924,0.299,0.2946,0.2991,0.3035,0.3091,0.3154,0.3061,0.3188,0.3191,0.3135,0.3246,0.2974,0.3098,0.3322,0.3325,0.3327,0,0.2363,0.2428,0.2527,0.2631,0.2661,0.272,0.2822,0.2881,0.2968,0.3002,0.306,0.3089,0.3175,0.3126,0.3257,0.321,0.3248,0.3277,0.3285,0.3186,0.3156,0.3056,0.3122,0.3357,0.3355,0.3353,0.3351,0,0.2348,0.2466,0.2545,0.2584,0.2704,0.2754,0.2816,0.2909,0.2974,0.3081,0.3149,0.3227,0.3306,0.3357,0.3414,0.3362,0.3558,0.3495,0.3468,0.3464,0.3232,0.3202,0.3585,0.3585,0.3585,0.3584,0.3584,0,0.2379,0.2442,0.2546,0.2594,0.2686,0.2763,0.2867,0.2934,0.3049,0.3129,0.3205,0.3295,0.3372,0.3484,0.3491,0.3555,0.3633,0.3496,0.3511,0.3264,0.3236,0.3438,0.3418,0.3591,0.3589,0.3588,0.3587,0,0.2369,0.2441,0.2533,0.265,0.2691,0.2757,0.2899,0.2957,0.3083,0.3201,0.3251,0.3404,0.3547,0.3626,0.3744,0.3673,0.3727,0.3726,0.3431,0.3406,0.356,0.3544,0.3703,0.3703,0.3702,0.3701,0.3701,0,0.2375,0.2421,0.2552,0.259,0.265,0.2755,0.2811,0.2955,0.3018,0.3248,0.3292,0.3507,0.3593,0.3762,0.3715,0.3752,0.3803,0.3497,0.3314,0.3578,0.3577,0.3562,0.3547,0.307,0.3065,0.306,0.3057,0,0.2357,0.2405,0.2463,0.2541,0.2611,0.2699,0.2796,0.2862,0.302,0.3156,0.3321,0.3432,0.3589,0.3505,0.3562,0.3518,0.3459,0.3403,0.3801,0.307,0.2991,0.2987,0.2991,0.3016,0.302,0.3023,0.3025,0.3027,0.2301,0.2332,0.238,0.2452,0.2532,0.2587,0.2621,0.2727,0.2847,0.2944,0.3136,0.3188,0.3255,0.318,0.313,0.3088,0.3284,0.3107,0.3117,0.3133,0.3017,0.2939,0.2933,0.2937,0.294,0.2942,0.2945,0,0.2172,0.222,0.2272,0.2336,0.2358,0.2468,0.2552,0.2545,0.2628,0.2731,0.2811,0.2597,0.2598,0.271,0.2581,0.2577,0.2498,0.2483,0.236,0.2405,0.2443,0.2285,0.2012,0.2009,0.2006,0.2003,0,0,0.2095,0.208,0.2118,0.2112,0.2186,0.2193,0.2226,0.226,0.2316,0.2245,0.2238,0.2357,0.2591,0.2221,0.2216,0.2112,0.2225,0.2027,0.2783,0.2682,0.2716,0.2824,0.2636,0,0,0,0,0]},{"header":{"parameterUnit":"m.s-1","parameterCategory":2,"la1":30.2991,"la2":30.254,"lo1":-89.0895,"lo2":-89.0444,"dy":0.0017,"dx":0.0017,"nx":28,"ny":28,"refTime":"2024-08-03T09:00:00:Z","depth":"2","parameterNumber":3,"parameterNumberName":"V-component_of_CURRENTS"},"data":[0,0,0,0,0,0,0,0,0,0,0,0,0,0,0,0,0,0,0,0,0,0,0,0,0,0,0,0,0,0,0,0,0,0,0,0,0,0,0,0,0,0,0,0,0,0,0,0,0,0,0,0,0,0,0,0,0,0,-0.0564,-0.0565,0,-0.0622,-0.0622,-0.0623,-0.0674,-0.0675,-0.0675,-0.0676,-0.0719,-0.072,-0.072,0,0,0,0,0,0,0,0,0,0,0,0,0,-0.0521,-0.0521,-0.0564,-0.0565,-0.0565,-0.0622,-0.0622,-0.0623,-0.0674,-0.0675,-0.0675,-0.0676,-0.0719,-0.072,-0.072,0,0,0,0,0,0,0,0,0,0,0,0,0,-0.0555,-0.0521,-0.0564,-0.0598,-0.0601,-0.0622,-0.0622,-0.0623,-0.0674,-0.0675,-0.0676,-0.0676,-0.0719,-0.0719,-0.072,-0.0707,0,0,-0.0723,-0.0723,0,0,0,0,0,0,0,0,-0.0553,-0.0556,-0.0592,-0.0595,-0.06,-0.0642,-0.0623,-0.0651,-0.0674,-0.0646,-0.0676,-0.0677,-0.0691,-0.0695,-0.0703,-0.0709,-0.0711,-0.0723,-0.0724,-0.0724,-0.0724,0,0,0,0,0,0,0,-0.055,-0.0554,-0.0587,-0.0593,-0.0597,-0.0618,-0.0624,-0.0629,-0.0662,-0.0649,-0.0652,-0.0659,-0.0693,-0.0702,-0.0705,-0.0712,-0.0723,-0.0724,-0.0724,-0.0725,-0.0735,-0.0735,0,0,0,0,0,0,-0.0541,-0.0552,-0.0585,-0.0588,-0.0578,-0.0618,-0.0624,-0.0627,-0.0663,-0.0669,-0.0658,-0.0661,-0.07,-0.0703,-0.0706,-0.0724,-0.0724,-0.0725,-0.0725,-0.0735,-0.0735,-0.0735,0,0,0,0,0,0,-0.054,-0.0543,-0.0582,-0.0572,-0.0578,-0.0618,-0.0621,-0.0628,-0.0643,-0.067,-0.0677,-0.0667,-0.0701,-0.0705,-0.0713,-0.0725,-0.0725,-0.0726,-0.0736,-0.0735,-0.0735,-0.0739,0,0,0,0,0,0,-0.0538,-0.0542,-0.0545,-0.0571,-0.0579,-0.0584,-0.062,-0.0628,-0.0645,-0.065,-0.0679,-0.0684,-0.0702,-0.0712,-0.0714,-0.0726,-0.0727,-0.0736,-0.0736,-0.0735,-0.0739,-0.0739,-0.0738,0,0,0,0,0,-0.0537,-0.0527,-0.0544,-0.0549,-0.0579,-0.0583,-0.0588,-0.0619,-0.0645,-0.0639,-0.0668,-0.0684,-0.0711,-0.0712,-0.0715,-0.0727,-0.0736,-0.0736,-0.0735,-0.0739,-0.0739,-0.0738,0,0,0,0,0,0,-0.0499,-0.0532,-0.0552,-0.0551,-0.0564,-0.0591,-0.0593,-0.0617,-0.0636,-0.0646,-0.0677,-0.0683,-0.0699,-0.0703,-0.0703,-0.0727,-0.0727,-0.0727,-0.0729,-0.0729,-0.0729,-0.0706,-0.0727,0,0,0,0,0,-0.0494,-0.0502,-0.0528,-0.0525,-0.0532,-0.0565,-0.0574,-0.0593,-0.0614,-0.0625,-0.0651,-0.0675,-0.0697,-0.0704,-0.072,-0.0724,-0.0741,-0.0733,-0.0733,-0.0732,-0.0715,-0.0758,-0.0761,-0.0733,-0.0733,-0.0733,0,0,-0.0478,-0.0497,-0.0501,-0.0519,-0.0536,-0.0534,-0.0572,-0.0579,-0.0584,-0.0624,-0.0641,-0.0674,-0.0698,-0.0714,-0.0721,-0.0719,-0.0751,-0.0732,-0.0732,-0.0714,-0.0758,-0.0761,-0.0763,-0.0733,-0.0733,-0.0733,0,0,-0.044,-0.0467,-0.0459,-0.0468,-0.049,-0.0511,-0.0511,-0.0542,-0.0564,-0.0578,-0.0621,-0.0655,-0.0676,-0.0706,-0.0721,-0.0721,-0.0751,-0.0729,-0.0708,-0.0752,-0.0755,-0.0757,-0.0796,-0.0802,-0.0726,-0.0726,-0.0726,0,-0.0419,-0.0418,-0.0453,-0.0444,-0.0451,-0.0498,-0.0483,-0.0507,-0.0539,-0.0555,-0.0578,-0.0643,-0.0673,-0.0702,-0.0711,-0.0722,-0.0747,-0.0713,-0.0753,-0.0756,-0.0758,-0.0797,-0.0804,-0.0726,-0.0726,-0.0726,-0.0726,0,-0.0378,-0.0377,-0.0369,-0.0383,-0.0389,-0.0385,-0.0421,-0.0437,-0.0478,-0.0511,-0.0555,-0.0607,-0.0641,-0.067,-0.0692,-0.0728,-0.0741,-0.0754,-0.0757,-0.0762,-0.0802,-0.0809,-0.0727,-0.0727,-0.0727,-0.0726,0,0,-0.033,-0.034,-0.0338,-0.0333,-0.0361,-0.0357,-0.0369,-0.0393,-0.0402,-0.0463,-0.0477,-0.0553,-0.0595,-0.0613,-0.0662,-0.0707,-0.0767,-0.0735,-0.0737,-0.0777,-0.0863,-0.0798,-0.08,-0.0794,-0.0794,-0.0795,-0.0888,0,-0.0289,-0.0259,-0.0279,-0.0253,-0.0244,-0.0286,-0.0288,-0.0319,-0.0362,-0.0386,-0.0468,-0.0495,-0.0569,-0.0585,-0.065,-0.0721,-0.0782,-0.074,-0.0846,-0.0849,-0.0796,-0.0805,-0.075,-0.0821,-0.0895,-0.0896,-0.0897,0,-0.025,-0.0235,-0.02,-0.0195,-0.0194,-0.0184,-0.0203,-0.0208,-0.0261,-0.0291,-0.0351,-0.0408,-0.0479,-0.0538,-0.0686,-0.0656,-0.0758,-0.0829,-0.0835,-0.0771,-0.0796,-0.0825,-0.0831,-0.0909,-0.0908,-0.0907,-0.0906,0,-0.0214,-0.0185,-0.0157,-0.0155,-0.0153,-0.0143,-0.0144,-0.0181,-0.017,-0.022,-0.0209,-0.033,-0.0348,-0.0503,-0.0651,-0.0672,-0.0806,-0.0854,-0.0904,-0.0901,-0.0869,-0.086,-0.0973,-0.0973,-0.0972,-0.0972,-0.0972,0,-0.0182,-0.0161,-0.0132,-0.0119,-0.0072,-0.0089,-0.0054,-0.0074,-0.0076,-0.0037,-0.0147,-0.0134,-0.0337,-0.0437,-0.0615,-0.0757,-0.0785,-0.0891,-0.0915,-0.0867,-0.0858,-0.0938,-0.0933,-0.0976,-0.0975,-0.0974,-0.0974,0,-0.0169,-0.0153,-0.0112,-0.0078,-0.0057,-0.0025,0.003,0.0051,0.0052,0.0108,0.0111,0.0026,-0.0083,-0.0293,-0.0516,-0.0664,-0.0837,-0.0892,-0.0812,-0.0824,-0.0923,-0.0917,-0.0961,-0.096,-0.0958,-0.0957,-0.0956,0,-0.017,-0.0146,-0.0073,-0.0036,-0.0018,0.004,0.0081,0.0108,0.0149,0.0215,0.025,0.0188,0.0176,-0.0116,-0.0404,-0.0678,-0.0769,-0.0816,-0.0844,-0.0899,-0.092,-0.0916,-0.0912,-0.0827,-0.0825,-0.0823,-0.0822,0,-0.0167,-0.0138,-0.0099,-0.0005,0.0056,0.0134,0.0206,0.0283,0.0342,0.0442,0.0554,0.0573,0.0322,0.0088,-0.0282,-0.0483,-0.0764,-0.0788,-0.0877,-0.0811,-0.0772,-0.0792,-0.0793,-0.0808,-0.0809,-0.081,-0.0811,-0.0812,-0.0158,-0.0125,-0.0056,0.0034,0.0109,0.0232,0.0349,0.0459,0.0623,0.0813,0.078,0.0849,0.0523,0.0109,-0.0226,-0.0594,-0.0622,-0.0768,-0.0774,-0.0781,-0.0722,-0.0679,-0.0688,-0.0689,-0.0689,-0.069,-0.069,0,-0.0113,-0.0078,-0.0018,0.0118,0.023,0.0263,0.0439,0.0602,0.0868,0.0984,0.1129,0.0898,0.063,0.0245,-0.0266,-0.0572,-0.063,-0.0673,-0.0697,-0.0708,-0.0719,-0.0658,-0.0607,-0.0608,-0.0608,-0.0609,0,0,-0.0089,-0.001,0.0028,0.0217,0.0318,0.0527,0.0666,0.091,0.1056,0.1244,0.1282,0.1238,0.0765,0.0414,-0.0024,-0.0311,-0.0433,-0.0361,-0.0395,-0.0382,-0.0388,-0.0741,-0.0655,0,0,0,0,0]}],[{"header":{"parameterUnit":"m.s-1","parameterCategory":2,"la1":30.2991,"la2":30.254,"lo1":-89.0895,"lo2":-89.0444,"dy":0.0017,"dx":0.0017,"nx":28,"ny":28,"refTime":"2024-08-03T09:00:00:Z","depth":"4","parameterNumber":2,"parameterNumberName":"U-component_of_CURRENTS"},"data":[0,0,0,0,0,0,0,0,0,0,0,0,0,0,0,0,0,0,0,0,0,0,0,0,0,0,0,0,0,0,0,0,0,0,0,0,0,0,0,0,0,0,0,0,0,0,0,0,0,0,0,0,0,0,0,0,0,0,0.1019,0.102,0,0.1081,0.1081,0.1082,0.1145,0.1146,0.1147,0.1149,0.1238,0.124,0.1241,0,0,0,0,0,0,0,0,0,0,0,0,0,0.0929,0.093,0.1019,0.102,0.1021,0.1081,0.1081,0.1082,0.1145,0.1146,0.1148,0.1149,0.1238,0.124,0.1241,0,0,0,0,0,0,0,0,0,0,0,0,0,0.0975,0.0931,0.1019,0.1062,0.1066,0.1081,0.1081,0.1082,0.1145,0.1146,0.1148,0.115,0.1237,0.1239,0.1241,0.1221,0,0,0.1248,0.1249,0,0,0,0,0,0,0,0,0.0972,0.0978,0.1054,0.1059,0.1064,0.1109,0.1083,0.1131,0.1144,0.1112,0.1149,0.115,0.1198,0.1204,0.1208,0.1226,0.1229,0.1248,0.1249,0.125,0.1251,0,0,0,0,0,0,0,0.0969,0.0975,0.1041,0.1055,0.1061,0.1069,0.1077,0.1092,0.1144,0.1115,0.1121,0.1131,0.1201,0.1205,0.121,0.1231,0.1248,0.125,0.1251,0.1252,0.1377,0.1379,0,0,0,0,0,0,0.0966,0.0972,0.1039,0.1043,0.1024,0.1069,0.1078,0.1091,0.1143,0.1153,0.1129,0.1134,0.1201,0.1208,0.1214,0.1307,0.125,0.1252,0.1253,0.1375,0.1378,0.138,0,0,0,0,0,0,0.0964,0.0971,0.1037,0.1011,0.102,0.1069,0.1083,0.1091,0.114,0.1154,0.1165,0.1175,0.1203,0.1211,0.1277,0.1307,0.1253,0.1255,0.1373,0.1376,0.1379,0.142,0,0,0,0,0,0,0.0961,0.097,0.0996,0.1011,0.1022,0.1073,0.1082,0.1092,0.1142,0.1149,0.1195,0.1203,0.1205,0.1274,0.1279,0.1308,0.1256,0.137,0.1374,0.1378,0.1416,0.1424,0.1431,0,0,0,0,0,0.0957,0.0979,0.0996,0.1006,0.1049,0.1074,0.1081,0.1118,0.1143,0.1168,0.1212,0.1204,0.1302,0.1277,0.1282,0.1313,0.1368,0.1373,0.1377,0.1412,0.1422,0.1431,0,0,0,0,0,0,0.0949,0.0988,0.1007,0.104,0.107,0.1087,0.1115,0.114,0.1192,0.1212,0.1229,0.124,0.131,0.131,0.1282,0.1364,0.1334,0.134,0.1359,0.1368,0.1375,0.1396,0.1258,0,0,0,0,0,0.0958,0.0991,0.1021,0.105,0.1067,0.1099,0.1122,0.1148,0.1185,0.1211,0.1246,0.1286,0.1323,0.1347,0.1378,0.1417,0.1429,0.1443,0.1451,0.1457,0.148,0.1534,0.1548,0.1395,0.1395,0.1395,0,0,0.0966,0.0989,0.1011,0.1052,0.1077,0.1102,0.1118,0.1161,0.1194,0.1211,0.1283,0.1319,0.1344,0.1396,0.1426,0.1405,0.1502,0.1463,0.1468,0.1488,0.154,0.1555,0.1568,0.1398,0.1398,0.1397,0,0,0.0973,0.1015,0.1041,0.1064,0.111,0.1131,0.1154,0.1198,0.1236,0.1302,0.1326,0.1396,0.1443,0.1472,0.1489,0.1559,0.1546,0.1561,0.1609,0.1661,0.1674,0.1685,0.1695,0.1707,0.1558,0.1558,0.1558,0,0.0978,0.1018,0.1051,0.1071,0.109,0.1148,0.1167,0.1212,0.1278,0.1319,0.1339,0.1458,0.1482,0.1547,0.1577,0.1576,0.1589,0.1566,0.167,0.1682,0.1693,0.17,0.1713,0.1561,0.156,0.156,0.156,0,0.0985,0.1037,0.1052,0.11,0.1117,0.1155,0.1199,0.1272,0.1334,0.1372,0.148,0.153,0.1612,0.1617,0.1622,0.1709,0.1685,0.1675,0.1642,0.1711,0.1714,0.1726,0.1564,0.1563,0.1563,0.1562,0,0,0.0949,0.1044,0.1053,0.109,0.1139,0.1157,0.1231,0.1307,0.1389,0.1467,0.1557,0.1637,0.1695,0.1721,0.174,0.1778,0.186,0.1766,0.1767,0.1766,0.1951,0.1842,0.1845,0.1866,0.187,0.1872,0.1911,0,0.0953,0.0997,0.104,0.1101,0.1126,0.1203,0.1268,0.1343,0.143,0.1541,0.1615,0.1719,0.172,0.1791,0.1831,0.1873,0.19,0.1849,0.1894,0.1895,0.1783,0.1859,0.1882,0.1921,0.1924,0.1926,0.1927,0,0.0922,0.0975,0.1007,0.1126,0.1146,0.1204,0.1328,0.1394,0.1544,0.1621,0.1736,0.1806,0.1919,0.1903,0.2007,0.1976,0.1979,0.1982,0.1983,0.1884,0.1811,0.1846,0.195,0.1948,0.1946,0.1945,0.1943,0,0.0834,0.0948,0.0977,0.1003,0.1134,0.1209,0.1305,0.1433,0.1513,0.1696,0.1783,0.1912,0.2004,0.2055,0.2098,0.2073,0.2169,0.2132,0.2021,0.2011,0.2075,0.2062,0.2189,0.2189,0.2188,0.2188,0.2188,0,0.0788,0.0829,0.0971,0.0996,0.1103,0.1184,0.1315,0.1446,0.1605,0.1696,0.1835,0.1923,0.2052,0.212,0.2133,0.2125,0.221,0.2053,0.2031,0.2086,0.2075,0.2081,0.2068,0.219,0.2189,0.2189,0.2189,0,0.0669,0.0749,0.0805,0.0977,0.1058,0.1118,0.1342,0.1434,0.1603,0.173,0.1804,0.1967,0.2074,0.2149,0.2228,0.2161,0.2172,0.213,0.218,0.2157,0.1962,0.1951,0.2028,0.2024,0.2022,0.202,0.2018,0,0.0615,0.0622,0.0773,0.0816,0.0917,0.1064,0.1177,0.1411,0.1485,0.1729,0.1757,0.1944,0.2034,0.2047,0.2134,0.2164,0.2125,0.21,0.2042,0.1983,0.1955,0.1948,0.194,0.2014,0.2013,0.2012,0.2011,0,0.0523,0.0551,0.0607,0.0708,0.0828,0.0935,0.1116,0.1187,0.1423,0.1598,0.1712,0.1814,0.1903,0.1977,0.2017,0.2022,0.2117,0.2071,0.2076,0.2022,0.1966,0.194,0.1936,0.2002,0.2004,0.2004,0.2005,0,0.0449,0.0443,0.0509,0.0589,0.0706,0.0777,0.0904,0.1049,0.1189,0.1482,0.1513,0.171,0.1875,0.1901,0.1936,0.1957,0.1924,0.1842,0.1857,0.1869,0.1804,0.1709,0.1669,0,0,0,0,0,0.0386,0.0366,0.0405,0.0487,0.0584,0.0669,0.0839,0.0957,0.1223,0.1267,0.1402,0.1502,0.1631,0.1711,0.1703,0.1841,0.19,0.1819,0.1804,0.1952,0.1962,0.1903,0,0,0,0,0,0,0.0331,0.0352,0.0359,0.0386,0.0429,0.055,0.0654,0.0824,0.0855,0.1119,0.1185,0.1395,0.1514,0.1623,0.1668,0.1697,0.1653,0.1953,0.1948,0.1946,0.1955,0.1964,0.1907,0,0,0,0,0]},{"header":{"parameterUnit":"m.s-1","parameterCategory":2,"la1":30.2991,"la2":30.254,"lo1":-89.0895,"lo2":-89.0444,"dy":0.0017,"dx":0.0017,"nx":28,"ny":28,"refTime":"2024-08-03T09:00:00:Z","depth":"4","parameterNumber":3,"parameterNumberName":"V-component_of_CURRENTS"},"data":[0,0,0,0,0,0,0,0,0,0,0,0,0,0,0,0,0,0,0,0,0,0,0,0,0,0,0,0,0,0,0,0,0,0,0,0,0,0,0,0,0,0,0,0,0,0,0,0,0,0,0,0,0,0,0,0,0,0,0.0155,0.0155,0,0.0122,0.0122,0.0121,0.0087,0.0086,0.0086,0.0085,-0.0003,-0.0005,-0.0007,0,0,0,0,0,0,0,0,0,0,0,0,0,0.0169,0.0169,0.0155,0.0155,0.0154,0.0122,0.0122,0.0121,0.0087,0.0086,0.0085,0.0085,-0.0003,-0.0005,-0.0007,0,0,0,0,0,0,0,0,0,0,0,0,0,0.0152,0.0169,0.0155,0.0133,0.0131,0.0122,0.0122,0.0121,0.0087,0.0086,0.0085,0.0085,-0.0002,-0.0005,-0.0008,-0.001,0,0,-0.0016,-0.0018,0,0,0,0,0,0,0,0,0.0153,0.0152,0.0137,0.0135,0.0132,0.0108,0.0094,0.0074,0.0087,0.0104,0.0085,0.0084,0.0029,0.0024,0.002,-0.0015,-0.0018,-0.0017,-0.0018,-0.002,-0.002,0,0,0,0,0,0,0,0.0154,0.0153,0.0142,0.0136,0.0133,0.0118,0.0115,0.009,0.007,0.0102,0.0099,0.0096,0.0027,0.0023,0.0017,-0.002,-0.0017,-0.0019,-0.0021,-0.0022,-0.0092,-0.0093,0,0,0,0,0,0,0.016,0.0154,0.0143,0.0141,0.0141,0.0119,0.0115,0.0116,0.0071,0.0064,0.0097,0.0094,0.0028,0.0021,0.0014,0.0009,-0.002,-0.0022,-0.0024,-0.0092,-0.0093,-0.0093,0,0,0,0,0,0,0.0161,0.016,0.0144,0.0146,0.0143,0.0119,0.0121,0.0116,0.0105,0.0068,0.0059,0.009,0.0027,0.0018,-0.0016,0.0005,-0.0023,-0.0026,-0.0092,-0.0092,-0.0093,-0.0002,0,0,0,0,0,0,0.0161,0.016,0.0162,0.0147,0.0143,0.0138,0.0121,0.0116,0.0104,0.0101,0.0059,0.0051,0.0026,-0.0011,-0.0019,0.0001,-0.0028,-0.0092,-0.0092,-0.0093,-0.0005,0.0001,0.0006,0,0,0,0,0,0.0162,0.0171,0.0162,0.0161,0.0147,0.0138,0.0135,0.0115,0.0105,0.0102,0.007,0.0052,-0.0019,-0.0014,-0.0022,-0.0003,-0.0092,-0.0092,-0.0093,-0.0007,-0.0,0.0006,0,0,0,0,0,0,0.0177,0.0167,0.0158,0.0162,0.0149,0.0132,0.0133,0.0116,0.0091,0.009,0.0048,0.0038,0.0015,-0.0014,-0.0008,-0.0028,-0.0058,-0.006,0.001,0.0016,0.0021,0.0035,-0.0031,0,0,0,0,0,0.0182,0.0186,0.017,0.0173,0.0171,0.0151,0.0145,0.0133,0.0111,0.01,0.007,0.0036,0.0009,-0.0004,-0.0036,-0.0044,-0.0095,-0.004,-0.0035,-0.003,-0.0027,-0.0113,-0.0115,-0.0094,-0.0094,-0.0094,0,0,0.0188,0.0184,0.0185,0.0176,0.0169,0.0183,0.0146,0.0145,0.0157,0.0094,0.0096,0.005,0.0006,-0.0004,-0.0016,-0.0024,-0.0058,-0.0031,-0.0025,-0.0026,-0.0113,-0.0116,-0.0117,-0.0094,-0.0094,-0.0094,0,0,0.0216,0.0202,0.0221,0.0218,0.0211,0.0202,0.0202,0.0185,0.0178,0.0169,0.0126,0.0086,0.0056,0.0025,0.0008,0.0018,-0.0033,0.0013,0.0061,-0.0021,-0.0023,-0.0026,-0.0066,-0.0073,0.0024,0.0024,0.0024,0,0.0222,0.0247,0.0223,0.0246,0.0252,0.0216,0.0243,0.0236,0.0208,0.0198,0.0181,0.0108,0.0072,0.0048,0.0058,0.0033,-0.0013,0.0049,-0.0013,-0.0017,-0.0021,-0.0062,-0.0071,0.0028,0.0028,0.0027,0.0027,0,0.0273,0.029,0.0303,0.0323,0.0324,0.0338,0.0329,0.0323,0.0306,0.0287,0.0249,0.0188,0.0139,0.0129,0.0105,0.0064,0.0042,-0.0001,-0.0023,-0.0017,-0.0061,-0.0072,0.0034,0.0033,0.0031,0.003,0,0,0.0288,0.0331,0.0335,0.0355,0.0367,0.037,0.0396,0.0393,0.0391,0.0357,0.034,0.0294,0.0237,0.0211,0.016,0.0102,0.0047,0.0052,0.0046,0.0025,-0.011,-0.0107,-0.012,-0.0012,-0.0015,-0.0016,-0.0118,0,0.0332,0.0394,0.0404,0.0454,0.048,0.0465,0.0486,0.0477,0.045,0.0421,0.0355,0.0315,0.0278,0.0244,0.0183,0.0063,0.0017,0.008,-0.0123,-0.0128,-0.0118,-0.0133,-0.0023,-0.0126,-0.0129,-0.0131,-0.0132,0,0.0378,0.0412,0.0476,0.0512,0.0522,0.0547,0.0549,0.0566,0.0525,0.0497,0.0441,0.0375,0.0297,0.0253,0.0076,0.0115,0.002,-0.0065,-0.0072,-0.0112,-0.0148,-0.0144,-0.0153,-0.0151,-0.015,-0.0148,-0.0147,0,0.039,0.0456,0.0507,0.0522,0.0561,0.0582,0.0602,0.0585,0.0593,0.0536,0.0509,0.0402,0.0337,0.0195,0.0042,0.0045,-0.016,-0.0188,-0.0264,-0.0264,-0.0274,-0.0271,-0.0308,-0.0308,-0.0308,-0.0308,-0.0307,0,0.042,0.0456,0.0518,0.0541,0.0594,0.0612,0.0645,0.0642,0.0629,0.0627,0.0545,0.0496,0.0312,0.0182,0.0044,-0.0139,-0.0164,-0.0258,-0.0301,-0.0229,-0.022,-0.028,-0.0276,-0.0311,-0.0311,-0.031,-0.0309,0,0.0415,0.0458,0.0514,0.0575,0.0602,0.0636,0.0695,0.071,0.0692,0.0682,0.0667,0.0549,0.0372,0.02,-0.0039,-0.0135,-0.0313,-0.0365,-0.0246,-0.028,-0.0356,-0.0346,-0.0469,-0.047,-0.0471,-0.0471,-0.0472,0,0.0421,0.0455,0.054,0.0582,0.0614,0.0674,0.0719,0.0739,0.0752,0.0709,0.0698,0.055,0.0449,0.0133,-0.0059,-0.0316,-0.0348,-0.0419,-0.0408,-0.0349,-0.0378,-0.0366,-0.0355,-0.0473,-0.0473,-0.0474,-0.0474,0,0.0434,0.0464,0.052,0.0613,0.0673,0.0736,0.0797,0.0794,0.0808,0.0793,0.071,0.0559,0.0365,0.013,-0.0064,-0.025,-0.037,-0.0428,-0.0428,-0.0418,-0.0356,-0.0381,-0.037,-0.0477,-0.0476,-0.0476,-0.0476,0,0.0457,0.0491,0.0578,0.0643,0.073,0.078,0.0798,0.0815,0.0828,0.0773,0.074,0.0547,0.0438,0.0162,-0.0025,-0.0203,-0.025,-0.0292,-0.03,-0.0299,-0.0221,-0.0115,-0.0202,0,0,0,0,0,0.0478,0.0521,0.0603,0.068,0.076,0.0805,0.0855,0.0859,0.0844,0.0797,0.0775,0.0601,0.0323,0.0194,0.0014,-0.0057,-0.029,-0.0273,-0.0344,-0.0493,-0.049,-0.0428,0,0,0,0,0,0,0.0501,0.0583,0.0609,0.0704,0.0747,0.0841,0.0862,0.0851,0.0817,0.0776,0.0624,0.0568,0.0287,0.0427,0.0013,-0.0042,-0.0108,-0.0402,-0.0405,-0.0495,-0.0492,-0.0489,-0.0425,0,0,0,0,0]}]]